www.pogodaiklimat.ru
ПОГОДА на Мак-Мердо
Время
(UTC), дата
18 6.11
21 6.11
00 7.11
03 7.11
06 7.11
09 7.11
12 7.11
15 7.11
18 7.11
21 7.11
00 8.11
03 8.11
06 8.11
09 8.11
12 8.11
15 8.11
18 8.11
21 8.11
00 9.11
03 9.11
06 9.11
09 9.11
12 9.11
15 9.11
18 9.11
21 9.11
00 10.11
03 10.11
06 10.11
09 10.11
12 10.11
15 10.11
18 10.11
21 10.11
00 11.11
03 11.11
06 11.11
09 11.11
12 11.11
15 11.11
18 11.11
21 11.11
00 12.11
03 12.11
06 12.11
09 12.11
12 12.11
15 12.11
18 12.11
21 12.11
00 13.11
03 13.11
06 13.11
09 13.11
12 13.11
15 13.11
Ветер
(напр.,м/с)
Видим. Явления Облачность Т
(С)
Тd
(С)
f
(%)
Тe
(С)
Тes
(С)
Комфортность P
(гПа)
Po
(гПа)
Тmin
(С)
Tmax
(С)
R
(мм)
R24
(мм)
S
(см)
В 7 11 км 5/0 2000 м
[Ac lent Ci sp]
-6.2 -16.6 44 -14 -14 по сезону 993.4 989.3
ЮВ 5 11 км 1/0
[Ac trans]
-6.0 -16.8 42 -13 -11 по сезону 993.8 989.7
ЮВ 5 11 км 1/0
[Ac lent Ci fib]
-3.6 -17.3 34 -9 -6 по сезону 994.1 989.7 -7.7 -2.1
ЮВ 5 11 км 1/0
[Ac trans]
-4.7 -16.2 40 -11 -9 по сезону 994.2 990.0
ЮВ 8 11 км 1/0
[Ac trans]
-5.2 -17.3 38 -13 -13 по сезону 999.0 994.2
В 6 11 км 1/1 900 м
[Sc Ac trans]
-5.4 -19.3 33 -13 -12 по сезону 994.5 990.2
штиль 0 11 км 3/3 300 м
[St]
-6.6 -10.8 72 -7 -7 тепло 995.6 991.5 -6.6 -4.3
штиль 0 11 км 3/3 450 м
[Sc]
-10.0 -17.8 53 -10 -10 по сезону 996.3 992.0
В 9 11 км 1/1 450 м
[Sc]
-9.7 -21.2 39 -19 -19 по сезону 996.0 991.7
В 8 11 км 1/1 600 м
[Sc Ci fib]
-8.6 -21.8 34 -18 -17 по сезону 996.1 991.8
В 6 11 км 4/4 840 м
[Sc]
-7.3 -16.9 46 -15 -13 по сезону 996.5 992.2 -10.1 -6.0
штиль 0 11 км 3/3 900 м
[Sc]
+0.1 -12.7 38 -0 +5 тепло 996.5 992.4
нст 2 11 км 9/5 840 м
[Sc]
-4.2 -13.4 49 -7 -6 тепло 996.7 992.5
штиль 0 11 км в посл. час снег 6/6 900 м
[Sc]
-4.7 -11.7 58 -5 -5 тепло 996.9 992.7
СВ 3 11 км ледяные иглы {снег} туман 3/3 300 м
[Sc]
-6.7 -11.9 66 -12 -11 по сезону 997.3 993.1 -7.5 +1.3 0.0
СВ 4 11 км {снег} 1/1 900 м
[Sc]
-7.3 -12.6 66 -13 -13 по сезону 997.1 992.9
СВ 4 11 км {снег} 1/1 900 м
[Sc]
-6.6 -11.5 68 -13 -12 по сезону 997.3 993.1
нст 2 11 км 1/0
[Ac trans]
-4.8 -11.2 61 -9 -5 по сезону 997.4 993.2
нст 2 11 км 1/1 450 м
[Cu hum Ac trans]
-3.6 -11.1 56 -7 -2 по сезону 997.7 993.5 -7.6 -3.5
нст 3 11 км 1/1 600 м
[Cu hum]
-4.3 -10.9 60 -9 -5 по сезону 997.7 993.4
штиль 0 11 км 1/1 600 м
[Cu hum]
-0.7 -9.5 51 -1 +2 тепло 997.9 993.7
ЮВ 4 11 км 1/1 600 м
[Sc]
-8.9 -14.2 65 -15 -15 по сезону 998.3 994.0
ЮВ 2 11 км 1/1 600 м
[Sc]
-10.9 -16.4 64 -14 -14 по сезону 998.7 994.4 -11.0 -0.6 0.0
штиль 0 11 км 8/8 600 м
[Cu Sc]
-8.7 -13.6 68 -9 -9 по сезону 999.0 994.7
штиль 0 11 км 5/5 1500 м
[Sc]
-6.2 -11.6 66 -7 -6 тепло 999.4 995.2
штиль 0 11 км 4/3 600 м
[Sc]
-3.7 -11.5 55 -4 -1 тепло 997.9 995.9
штиль 0 11 км {снег} 8/8 900 м
[Cu Sc]
-1.7 -10.2 52 -2 -1 тепло 1001.0 996.7 -10.9 -1.0
ЮВ 2 11 км слаб. снег 9/9 1050 м
[Sc]
-6.1 -12.0 63 -9 -9 по сезону 1001.3 997.0
В 5 11 км {снег} 6/6 1200 м
[Sc]
-6.9 -15.9 49 -14 -13 по сезону 1001.8 997.5
штиль 0 11 км 4/4 1000 м
[Sc]
-7.1 -15.6 51 -7 -7 тепло 1001.8 997.6
нст 2 11 км 4/4 750 м
[Sc]
-8.1 -14.2 61 -12 -12 по сезону 1002.2 998.0 -8.4 -6.2 0.0
нст 3 11 км слаб. снег 9/9 750 м
[Sc]
-7.8 -12.9 67 -13 -13 по сезону 1001.7 997.5
нст 3 11 км {снег} 5/5 1080 м
[Sc]
-7.1 -14.2 57 -13 -12 по сезону 1001.4 997.1
В 4 11 км осадки на расстоянии 8/8 900 м
[Sc]
-6.1 -15.1 49 -12 -12 по сезону 1001.5 997.2
Ю 4 11 км осадки на расстоянии 8/6 900 м
[Sc Cs]
-7.3 -15.3 53 -13 -12 по сезону 1001.4 997.1 -9.0 -2.0
Ю 7 11 км 8/8 900 м
[Sc]
-10.1 -17.3 56 -19 -19 прохладно 1001.2 996.9
штиль 0 11 км 1/1 900 м
[Sc]
-5.1 -14.3 48 -5 -2 тепло 1000.2 996.0
С 2 11 км 1/1 900 м
[Sc]
-7.1 -14.2 57 -10 -9 по сезону 999.1 994.8
С 2 11 км 3/3 600 м
[Sc]
-7.8 -13.4 64 -12 -12 по сезону 997.3 993.0 -8.6 -1.9 0.0
С 3 11 км 9/9 450 м
[Sc]
-8.6 -12.5 73 -14 -14 по сезону 995.4 991.2
нст 3 11 км 3/3 450 м
[Sc Ci fib]
-6.1 -12.5 60 -11 -11 по сезону 994.4 990.2
ЮВ 5 11 км осадки на расстоянии 3/3 900 м
[Sc Ci sp]
-7.6 -13.2 64 -15 -13 по сезону 993.4 989.1
Ю 4 11 км осадки на расстоянии 3/3 800 м
[Sc Ci sp]
-6.7 -13.2 60 -13 -10 по сезону 992.8 988.6 -10.0 -6.0
ЮВ 6 11 км 1/1 800 м
[Sc]
-9.9 -15.1 66 -18 -17 прохладно 992.0 987.8
ЮВ 8 11 км 1/1 450 м
[Sc]
-11.8 -15.5 74 -22 -21 холодно 991.5 987.2
ЮВ 5 11 км 4/4 660 м
[Sc]
-11.5 -15.2 74 -20 -19 прохладно 991.6 987.3
ЮВ 5 11 км ледяные иглы 3/3 600 м
[Sc]
-11.3 -15.0 74 -19 -19 по сезону 991.3 987.1 -13.1 -6.7 0.0
ЮВ 5 11 км {снег} 9/9 800 м
[Sc]
-11.4 -15.3 73 -19 -19 по сезону 990.9 986.6
ЮВ 7 11 км слаб. снег 9/9 800 м
[Sc]
-12.2 -18.6 59 -21 -21 прохладно 991.1 986.8 -12.6 -10.4
ЮВ 6 11 км слаб. снег 9/9 800 м
[Sc]
-11.4 -21.7 42 -20 -20 прохладно 990.7 986.3
В 4 11 км слаб. снег 9/9 800 м
[Sc]
-9.0 -15.3 60 -16 -15 по сезону 990.1 985.9 -12.6 -8.9
В 5 11 км слаб. снег 10/10 300 м
[Sc]
-9.3 -13.8 70 -17 -17 по сезону 989.7 985.5
В 6 11 км слаб. снег 10/10 300 м
[Sc]
-10.2 -14.9 68 -19 -19 прохладно 989.7 985.4
В 3 11 км слаб. снег 9/9 300 м
[Sc]
-8.9 -14.4 64 -15 -15 по сезону 990.0 985.8
Ю 7 11 км слаб. снег 9/9 450 м
[Sc]
-13.2 -17.2 72 -23 -23 холодно 990.6 986.2 -13.2 -8.7 0.0
ЮВ 8 11 км {снег} 10/10 900 м
[Sc]
-12.3 -16.2 73 -22 -22 холодно 991.2 986.9
Местоположение метеостанции Мак-Мердо (Антарктида): широта -77.85 долгота 166.66 высота над уровнем моря 24 м.
В архиве по умолчанию представлена погода на Мак-Мердо за последнюю неделю. Архивные данные за месяц целиком и за предыдущие месяцы, начиная с января 2011 года, Вы можете получить, выбрав интересующий диапазон дат из раскрывающегося списка и нажав кнопку "Найти!".
*Определитесь, кто Вы:
Внимание! Время в таблицах - всемирное. Для получения местного времени необходимо прибавить поправку, которая равна 0 ч.
Смотрите также архив погоды в соседних городах и на ближайших метеорологических станциях:
Партнеры нашего сайта:      
Пояснения к столбцам:
  • Ветер - указаны скорость ветра в м/с - средняя за 10 мин, порывы в срок и между сроками (в фигурных скобках) и направление, откуда дует ветер: С - северный,
  • СВ - северо-восточный, В - восточный, ЮВ - юго-восточный, Ю - южный, ЮЗ - юго-западный, З - западный, СЗ - северо-западный.
  • Видимость - горизонтальная дальность видимости в метрах или километрах. При видимости от 1 до 10 км при отсутствии осадков обычно наблюдается дымка, при ухудшении видимости до 1 км и менее - туман. В сухую погоду видимость может ухудшаться дымом, пылью или мглою.
  • Явления - указаны атмосферные явления, наблюдавшиеся в срок или в последний час перед сроком; фигурными скобками обозначены явления, наблюдавшиеся между сроками (за 1-3 часа до срока); квадратными скобками обозначены град или гололедные отложения с указанием их диаметра в мм.
  • Облачность - указаны через наклонную черту общая и нижняя облачность в баллах и высота нижней границы облаков в метрах; квадратными скобками обозначены формы облаков: Ci - перистые, Cs - перисто-слоистые, Cc - перисто-кучевые, Ac - высококучевые, As - высокослоистые, Sc - слоисто-кучевые, Ns - слоисто-дождевые, Cu - кучевые, Cb - кучево-дождевые. Подробнее классификацию облаков см. в Атласе облаков (PDF).
  • T - Температура воздуха - температура, измеренная на высоте 2 м над землей.
  • Td - Температура точки росы - температура, при понижении до которой содержащийся в воздухе водяной пар достигнет насыщения.
  • f - Относительная влажность воздуха - влажноcть воздуха, измеренная на высоте 2 м над землей.
  • Te - Эффективная температура - температура, которую ощущает одетый по сезону человек в тени. Характеристика душности погоды. При расчете учитывается влияние влажности воздуха и скорости ветра на теплоощущения человека.
  • Tes - Эффективная температура на солнце - температура, которую ощущает человек, с поправкой на солнечный нагрев. Характеристика знойности погоды. Зависит от высоты солнца над горизонтом, облачности и скорости ветра. Ночью, в пасмурную погоду, а также при ветре 12 м/с и более поправка равна нулю.
  • P - Атмосферное давление - приведенное к уровню моря атмосферное давление.
  • Po - Атмосферное давление - измеренное на уровне метеостанции атмосферное давление.
  • Tmin - Минимальная температура - минимум температуры воздуха на высоте 2 м над землей.
  • Tmax - Максимальная температура - максимум температуры воздуха на высоте 2 м над землей.
  • R - Количество осадков - Количество выпавших осадков за период времени, мм. При наведении курсора мыши на число - период времени, за который выпало указанное количество осадков.
  • R24 - Количество осадков - Количество выпавших осадков за 24 часа, мм.
  • S - Снежный покров - Высота снежного покрова, см. При наведении курсора мыши на число - состояние снежного покрова и степень покрытия местности в баллах.